Location: Góry Miechowskie
(50.3599°N, 20.1803°E)
Time: 20:49:58
(UTC+00:00)

A-11 Canister half - Pass Details

Date: 13 September 2024
Orbit: 1524 x 1683 km, 47.3° (Epoch: 13 October)

Event Time Altitude Azimuth Distance (km) Brightness Sun altitude
Rises 19:40:07 0° 289° (WNW) 4,853 12.7 -24.5°
Reaches altitude 10° 19:43:43 10° 279° (W) 3,886 11.8 -25.0°
Maximum altitude 19:51:47 29° 224° (SW) 2,693 10.2 -25.9°
Enters shadow 19:56:09 22° 188° (S) 3,106 10.2 -26.4°
